Home > Time Zones > World Clock > Weather > Iran > Ahvaz > Past weeks

Flag for Iran Weather past 2 weeks in Ahvaz, Iran

Now
99 °F

Clear.


Feels Like: 98 °F
Forecast: 91 / 114 °F
Wind: No wind

Location: Ahwaz

Current Time: May 31, 2015 at 12:11:13 AM

Latest Report: May 30, 2015 at 11:30 PM


Visibility: 10 mi

Pressure: 29.68 "Hg

Humidity: 27%

Dew point: 59 °F

Location of AhvazLocation

Historic Weather in Ahvaz — Graph

°F

Ahvaz temperature yesterday

Maximum temperature yesterday: 117 °F (at 2:30 PM)
Minimum temperature yesterday: 84 °F (at 5:30 AM)
Average temperature yesterday: 103 °F

Past Weeks' High & Low Weather Summary

 TemperatureHumidityPressure
High117 °F (May 30, 2:30 PM)54% (May 20, 7:30 AM)29.92 "Hg (May 20, 7:30 AM)
Low70 °F (May 22, 4:30 AM)6% (May 18, 5:00 PM)29.59 "Hg (May 22, 5:30 PM)
Average96 °F20%29.69 "Hg
* Reported May 15 10:30 PM — May 30 11:00 PM, Ahvaz, Weather by CustomWeather, © 2015

Note: Actual official high and low records may vary slightly from our data, if they occured in-between our weather recording intervals... More about our weather records

Advertising

Ahvaz weather history for previous 24 hours

 ConditionsComfort  
Time TempWeatherWind HumidityBarometerVisibility
11:00 PM
Sat, May 30
100 °FClear.2 mph24%29.65 "Hg5 mi
10:30 PM100 °FClear.No wind24%29.65 "Hg5 mi
10:00 PM102 °FClear.No wind20%29.65 "Hg5 mi
9:30 PM104 °FClear.No wind19%29.65 "Hg5 mi
9:00 PM104 °FClear.No wind33%29.65 "Hg4 mi
8:30 PM104 °FClear.No wind33%29.65 "Hg4 mi
8:00 PM109 °FClear.No wind17%29.65 "Hg4 mi
7:30 PM111 °FClear.5 mph15%29.62 "Hg4 mi
7:00 PM111 °FClear.5 mph10%29.62 "Hg4 mi
6:30 PM113 °FClear.5 mph12%29.62 "Hg4 mi
6:00 PM115 °FClear.5 mph10%29.65 "Hg4 mi
5:30 PM115 °FClear.7 mph10%29.65 "Hg4 mi
5:00 PM117 °FClear.9 mph9%29.65 "Hg4 mi
4:30 PM117 °FSunny.7 mph10%29.65 "Hg4 mi
4:00 PM117 °FClear.9 mph10%29.65 "Hg4 mi
3:30 PM117 °FClear.5 mph10%29.65 "Hg4 mi
3:00 PM117 °FClear.7 mph12%29.68 "Hg4 mi
2:30 PM117 °FClear.5 mph12%29.68 "Hg4 mi
2:00 PM115 °FClear.5 mph11%29.68 "Hg4 mi
1:30 PM113 °FClear.7 mph13%29.71 "Hg4 mi
1:00 PM111 °FClear.7 mph12%29.71 "Hg4 mi
12:30 PM109 °FClear.7 mph14%29.71 "Hg4 mi
12:00 PM108 °FClear.5 mph15%29.71 "Hg4 mi
11:30 AM106 °FClear.9 mph17%29.71 "Hg4 mi
11:00 AM104 °FHaze.5 mph15%29.71 "Hg3 mi
10:30 AM100 °FHaze.7 mph20%29.71 "Hg3 mi
10:00 AM99 °FHaze.5 mph21%29.71 "Hg2 mi
9:30 AM97 °FHaze.5 mph22%29.71 "Hg2 mi
9:00 AM95 °FHaze.5 mph26%29.71 "Hg2 mi
8:30 AM93 °FHaze.5 mph26%29.68 "Hg2 mi
8:00 AM90 °FHaze.No wind36%29.68 "Hg2 mi
7:30 AM86 °FHaze.No wind40%29.65 "Hg2 mi
6:30 AM88 °FHaze.No wind33%29.65 "Hg2 mi
5:30 AM84 °FClear.5 mph35%29.62 "Hg4 mi
4:30 AM88 °FClear.No wind33%29.62 "Hg4 mi
3:30 AM90 °FClear.No wind33%29.62 "Hg4 mi
2:30 AM86 °FClear.No wind40%29.62 "Hg4 mi
1:30 AM88 °FClear.No wind38%29.62 "Hg4 mi
1:00 AM91 °FClear.No wind26%29.62 "Hg4 mi
12:30 AM95 °FClear.No wind25%29.62 "Hg4 mi
12:00 AM93 °FClear.No wind34%29.62 "Hg4 mi
Weather by CustomWeather, © 2015

See weather overviewHow to use our weather pages